TIME,DELAY(SENSOR),PRES,T(CTD),SAL,OXYGEN,RAWTEMP,T(OPTODE),TCPHASE,FLUOR,BETA(BETA700),BETA(BETA412),BETA(BETA440),CDOM,C(CSC),ED(ED411.90),ED(ED443.80),ED(ED489.40),ED(ED554.70),LU(LU412.20),LU(LU443.80),LU(LU489.40),LU(LU555.00),COMP,TILTX,TILTX(TILTY),CHECK
1340034195,5805,492.8099975585937500,15.9860000610351560,36.1787986755371100,213.2415008544922000,236.0178985595703000,15.9864902496337890,33.5433311462402340,50,108,100,80,69,15439,2147478912,2147774875,2147563328,2147801152,2147311936,2147475574,2147724224,2148242422,3485,7,13,62351
1340034316,5801,481.8999938964844000,16.1462001800537100,36.2095985412597660,216.0294036865234400,230.9580993652343800,16.1403293609619140,33.3194084167480500,50,107,99,78,69,15438,2147477705,2147772909,2147563392,2147799478,2147312740,2147472996,2147723785,2148241316,735,8,13,33476
1340034440,5806,470.9200134277344000,16.3104991912841800,36.2420997619628900,218.6786956787109400,225.1793975830078000,16.3160190582275400,33.0955390930175800,50,107,99,80,68,15440,2147475776,2147772050,2147561782,2147800064,2147310116,2147473883,2147719204,2148244077,1038,7,13,2131
1340034561,5802,460.4500122070312500,16.4668998718261720,36.2720985412597660,220.9645996093750000,220.2817993164062500,16.4649295806884770,32.9059104919433600,49,106,100,80,68,15437,2147480658,2147773760,2147560640,2147795318,2147314093,2147475684,2147721874,2148245988,1029,7,13,32444
1340034693,5804,449.2600097656250000,16.6088008880615230,36.3004989624023440,224.3117065429687500,215.4759979248047000,16.6110496520996100,32.6647605895996100,50,107,101,80,67,15439,2147479872,2147771081,2147563638,2147795602,2147315428,2147477147,2147718912,2148244525,1075,7,13,25109
1340034827,5802,438.1600036621094000,16.7269001007080080,36.3247985839843750,225.6716003417968800,211.5632019042968800,16.7300300598144530,32.5405197143554700,50,107,101,80,68,15435,2147482816,2147774628,2147560676,2147796662,2147315446,2147477421,2147719643,2148239433,538,8,13,16994
1340034959,5803,427.2999877929687500,16.8603000640869140,36.3510017395019500,228.0807037353515600,207.3910980224609400,16.8568992614746100,32.3603286743164060,50,108,101,80,68,15436,2147480832,2147771355,2147561645,2147793901,2147313609,2147475318,2147716982,2148245952,831,7,13,7366
1340035094,5804,416.4299926757812500,17.0356006622314450,36.3857002258300800,229.6869964599609400,201.4326019287109400,17.0381107330322270,32.1976203918457000,50,107,100,79,67,15436,2147484205,2147769618,2147563739,2147796598,2147311131,2147479085,2147716141,2148243081,1421,7,13,28103
1340035226,5802,405.8900146484375000,17.1564006805419920,36.4091987609863300,232.0323028564453000,197.5189971923828000,17.1571502685546880,32.0274696350097660,50,107,100,80,68,15437,2147482870,2147770221,2147562368,2147793883,2147317019,2147479259,2147712941,2148244818,1662,7,13,28286
1340035380,5803,392.9500122070312500,17.3003997802734380,36.4366989135742200,233.9936981201172000,192.9355926513672000,17.2965793609619140,31.8688201904296880,50,115,99,80,68,15434,2147486866,2147768301,2147564608,2147795382,2147312950,2147478400,2147717869,2148246866,1531,7,13,22709
1340035490,5802,381.7600097656250000,17.3652992248535160,36.4510002136230500,235.4564056396484400,190.7628021240234400,17.3626804351806640,31.7682094573974600,50,109,100,81,67,15434,2147485037,2147766866,2147563446,2147796864,2147312374,2147476461,2147717796,2148245906,1614,7,12,63400
1340035589,5803,371.3299865722656000,17.4106006622314450,36.4590988159179700,236.2631072998047000,188.7644042968750000,17.4234790802001950,31.7024497985839840,50,108,101,79,66,15434,2147483593,2147770761,2147563913,2147797339,2147313764,2147480731,2147713545,2148243309,1621,7,13,40560
1340035688,5802,361.4899902343750000,17.4782009124755860,36.4711990356445300,236.8726043701172000,187.0673980712890600,17.4751205444335940,31.6499290466308600,50,109,102,80,67,15434,2147482889,2147772836,2147565988,2147797622,2147314980,2147480484,2147716982,2148242304,1146,7,13,42459
1340035815,5806,350.8200073242187500,17.5398998260498050,36.4824981689453100,237.1385040283203000,185.0357971191406200,17.5369396209716800,31.6097908020019530,50,111,100,81,66,15435,2147483346,2147771419,2147570724,2147792457,2147312219,2147482944,2147722404,2148244379,1110,8,13,54628
1340035961,5802,338.9299926757812500,17.6037998199462900,36.4930992126464840,237.2658996582031200,182.9483947753906200,17.6004600524902340,31.5753402709960940,50,109,101,80,67,15431,2147484964,2147773056,2147573805,2147794660,2147311661,2147483337,2147722514,2148244096,1194,7,13,63012
1340036104,5804,327.5100097656250000,17.6758995056152340,36.5052986145019500,237.2559051513672000,180.6360015869140600,17.6708393096923830,31.5445308685302730,50,108,99,81,66,15431,2147485174,2147773193,2147575140,2147794413,2147311652,2147479634,2147723154,2148240585,1834,7,13,22468
1340036247,5802,316.1600036621094000,17.7182998657226560,36.5120010375976560,237.3011016845703000,179.1632995605468800,17.7156600952148440,31.5223197937011720,50,109,99,80,66,15433,2147482916,2147776493,2147580992,2147790381,2147315492,2147479195,2147725202,2148244525,2408,7,13,23596
1340036376,5804,304.7200012207031000,17.7987995147705080,36.5267982482910160,237.9058990478515600,176.5135955810547000,17.7963199615478500,31.4577407836914060,50,109,99,80,67,15431,2147486418,2147776941,2147589842,2147791378,2147321051,2147483593,2147735734,2148245531,2366,7,13,26299
1340036486,5803,294.0199890136719000,17.8773002624511720,36.5369987487793000,238.1553039550781200,173.9757995605468800,17.8735809326171880,31.4120101928710940,50,110,101,80,67,15429,2147489005,2147781284,2147601380,2147792612,2147311030,2147491218,2147740315,2148245074,2911,7,12,41041
1340036596,5802,283.6400146484375000,17.9347991943359380,36.5456008911132800,237.6746063232422000,172.0650939941406200,17.9317493438720700,31.4089794158935550,50,111,100,81,67,15423,2147484260,2147782491,2147613293,2147792064,2147313252,2147493778,2147748352,2148245028,2907,7,13,63453
1340036719,5801,272.2300109863281000,17.9908008575439450,36.5517005920410160,237.0218963623047000,170.2102050781250000,17.9882297515869140,31.4150600433349600,50,111,101,79,65,15425,2147488438,2147786404,2147638774,2147792466,2147305581,2147493924,2147757430,2148243913,18,8,13,63724
1340036840,5806,260.9599914550781000,18.0522994995117200,36.5568008422851560,235.7167968750000000,168.1822052001953000,18.0499897003173830,31.4501399993896500,50,112,98,82,68,15422,2147492416,2147795547,2147662710,2147791835,2147307008,2147500992,2147773750,2148244534,441,7,13,20878
1340036953,5802,250.4299926757812500,18.1175003051757800,36.5606002807617200,234.1907958984375000,165.5446929931640600,18.1303100585937500,31.4881801605224600,50,113,101,80,65,15420,2147489472,2147810102,2147700498,2147792877,2147311698,2147512210,2147790473,2148245092,398,7,13,46816
1340037074,5803,239.1000061035156200,18.2000999450683600,36.5662002563476560,232.8697967529297000,163.2265014648437500,18.2009201049804700,31.5207595825195300,50,113,102,81,66,15417,2147492525,2147824009,2147750464,2147789906,2147313938,2147521718,2147824192,2148248667,416,8,12,50976
1340037184,5805,228.5700073242187500,18.3090991973876950,36.5764999389648440,230.8731994628906200,159.6929931640625000,18.3085708618164060,31.5708599090576170,50,113,102,82,66,15417,2147495579,2147850276,2147818770,2147790720,2147317129,2147535515,2147867163,2148251876,939,7,13,37979
1340037297,5802,217.5399932861328000,18.4088001251220700,36.5821990966796900,228.8352050781250000,156.1186981201172000,18.4174900054931640,31.6229000091552730,51,117,101,81,67,15414,2147504384,2147887835,2147919387,2147789321,2147310372,2147562532,2147924434,2148252909,1751,7,12,11497
1340037418,5804,205.7599945068359400,18.6530990600585940,36.5903015136718750,228.5894012451172000,148.3930969238281200,18.6529808044433600,31.5315608978271500,50,114,102,80,66,15414,2147511862,2147955437,2148067894,2147792310,2147317366,2147599643,2148014902,2148258157,2046,7,13,65218
1340037506,5805,197.1600036621093800,18.8885002136230470,36.5982017517089840,232.4060974121093800,140.5290985107422000,18.8928203582763670,31.2396507263183600,50,114,102,83,67,15412,2147517357,2148020873,2148216713,2147789238,2147319835,2147640795,2148105179,2148263579,2578,7,13,3672
1340037581,5801,190.5399932861328000,19.1084003448486330,36.6041984558105500,238.2725067138672000,133.8200988769531200,19.0975494384765620,30.8712291717529300,50,114,101,83,67,15412,2147530733,2148079616,2148351497,2147793289,2147333604,2147681106,2148182262,2148268123,3316,7,13,10426
1340037636,5802,186.3899993896484400,19.2196006774902340,36.6063995361328100,242.7801971435547000,129.8995056152343800,19.2172298431396500,30.6110000610351560,50,117,101,82,65,15418,2147541632,2148125284,2148450422,2147792374,2147332845,2147716736,2148240594,2148269312,3113,8,12,48007
1340037691,5802,182.5099945068359400,19.2798995971679700,36.6004981994628900,248.8936004638672000,128.0767059326172000,19.2728900909423830,30.3113708496093750,50,114,102,80,64,15416,2147550061,2148169590,2148552118,2147793828,2147333961,2147752283,2148307062,2148271753,3303,7,13,56660
1340037746,5804,178.7100067138672000,19.2987995147705080,36.6040000915527340,252.9651031494140600,127.1151962280273400,19.3022499084472660,30.1198406219482420,51,116,101,81,64,15414,2147564224,2148227821,2148670235,2147794925,2147342957,2147788114,2148381385,2148276754,3447,7,12,6577
1340037801,5804,175.0000000000000000,19.3250007629394530,36.6048011779785160,255.3072967529297000,126.4543991088867200,19.3224391937255860,30.0098705291748050,51,116,101,84,63,15414,2147575990,2148280137,2148790976,2147792018,2147347346,2147831222,2148460726,2148281792,3451,7,12,35706
1340037890,5804,169.6600036621093800,19.3456993103027340,36.6034011840820300,257.4159851074219000,125.8002014160156200,19.3424205780029300,29.9108009338378900,51,118,102,82,63,15413,2147600064,2148372891,2148984731,2147794121,2147355977,2147905581,2148581366,2148287616,3394,8,12,8790
1340037978,5799,165.4799957275390600,19.3582000732421880,36.6016998291015600,258.5588073730469000,125.3544998168945300,19.3560295104980470,29.8565406799316400,54,115,104,82,64,15408,2147622253,2148457453,2149161600,2147794057,2147373604,2147965412,2148695451,2148294765,3223,7,13,4690
1340038066,5806,161.5299987792968800,19.3661994934082030,36.6012001037597660,259.4254150390625000,125.1235961914062500,19.3630790710449220,29.8168201446533200,55,118,102,82,63,15410,2147645750,2148545801,2149359652,2147795721,2147387172,2148030226,2148814235,2148299611,3003,7,13,19385
1340038154,5802,157.5899963378906200,19.3698997497558600,36.5997009277343750,259.9071044921875000,125.0019989013671900,19.3668003082275400,29.7950706481933600,57,117,103,83,63,15405,2147673572,2148646299,2149557376,2147795190,2147398957,2148099309,2148937837,2148309083,3103,7,13,41498
1340038244,5803,153.4900054931640600,19.3722000122070300,36.5987014770507800,260.2004089355469000,124.9114990234375000,19.3695602416992200,29.7815208435058600,59,121,102,81,63,15406,2147713682,2148757906,2149804260,2147797659,2147417261,2148181412,2149085275,2148319780,3269,7,13,43243
1340038332,5803,149.5299987792968800,19.3740997314453120,36.5976982116699200,260.4158020019531000,124.8208999633789000,19.3723297119140620,29.7710609436035160,61,119,101,83,65,15401,2147753609,2148894189,2150083721,2147798976,2147447753,2148272118,2149246354,2148324790,3592,7,13,22329
1340038420,5803,145.5099945068359400,19.3784008026123050,36.5959014892578100,260.9088134765625000,124.7164993286132800,19.3755207061767580,29.7491302490234380,65,119,103,84,64,15396,2147805385,2149055835,2150398656,2147802889,2147472667,2148377106,2149428288,2148340434,285,7,13,18167
1340038511,5804,141.2700042724609400,19.3817996978759770,36.5954017639160160,261.1771850585937500,124.5767974853515600,19.3797893524169920,29.7362403869628900,75,126,102,83,62,15391,2147880475,2149265362,2150818450,2147806573,2147515154,2148504658,2149656365,2148352786,530,7,13,4429
1340038588,5805,137.5599975585937500,19.3871002197265620,36.5946006774902340,261.0628967285156000,124.4309005737304700,19.3842391967773440,29.7389602661132800,80,125,103,83,63,15382,2147960832,2149491227,2151251904,2147813842,2147556187,2148629421,2149881526,2148368338,702,7,12,18694
1340038665,5805,133.6399993896484400,19.3943004608154300,36.5946998596191400,260.7155151367187500,124.2006988525390600,19.3912792205810550,29.7506198883056640,89,128,103,84,64,15367,2148067977,2149779904,2151792658,2147820507,2147598390,2148778870,2150140041,2148388032,692,7,13,60650
1340038742,5804,129.6199951171875000,19.3987998962402340,36.5946998596191400,260.8523864746094000,124.0412979125976600,19.3961391448974600,29.7428798675537100,94,129,103,83,62,15369,2148211648,2150141220,2152444214,2147831689,2147659501,2148957604,2150437869,2148408676,349,7,12,9727
1340038822,5803,125.2799987792968800,19.4036006927490230,36.5948982238769500,261.1872863769531000,123.8511962890625000,19.4019508361816400,29.7263298034667970,100,136,103,84,63,15353,2148414784,2150675136,2153389458,2147844461,2147736466,2149201005,2150850788,2148445330,285,7,12,11834
1340038899,5804,120.9499969482421900,19.4123992919921880,36.5948982238769500,261.5809020996094000,123.5746002197265600,19.4104003906250000,29.7062091827392580,111,132,105,83,62,15352,2148694820,2151335606,2154498770,2147864822,2147858249,2149491044,2151329618,2148480612,407,7,13,20252
1340038965,5804,117.0699996948242200,19.4171009063720700,36.5937004089355500,261.9479980468750000,123.4320983886718800,19.4147491455078120,29.6892395019531250,116,133,103,83,64,15342,2149019337,2152084260,2155716105,2147892233,2147985206,2149798893,2151818660,2148527030,557,7,13,22763
1340039031,5805,113.0100021362304700,19.4218997955322270,36.5934982299804700,262.2792968750000000,123.2637023925781200,19.4199008941650400,29.6732292175292970,118,134,104,85,64,15339,2149442953,2153029074,2157215780,2147924425,2148137005,2150179876,2152422939,2148579035,515,7,13,44567
1340039097,5804,108.7900009155273400,19.4370994567871100,36.5924987792968750,263.1357116699219000,122.8199005126953100,19.4334602355957030,29.6318302154541000,130,134,102,85,65,15325,2150051702,2154323785,2159209408,2147978377,2148352896,2150676598,2153207250,2148653577,589,7,13,43203
1340039154,5804,105.0400009155273400,19.4377002716064450,36.5926017761230500,263.8710021972656000,122.7060012817382800,19.4369392395019530,29.6000709533691400,134,136,103,82,64,15318,2150674112,2155599122,2161132772,2148031469,2148580617,2151164086,2153942966,2148725321,809,7,13,11399
1340039220,5803,100.5400009155273400,19.4570007324218750,36.5923004150390600,264.6292114257812500,122.1387023925781200,19.4542694091796880,29.5612907409667970,144,138,105,84,64,15304,2151652690,2157556626,2164055926,2148129389,2148940333,2151893668,2155047478,2148840704,1085,7,13,59523
1340039275,5802,96.8899993896484400,19.4692993164062500,36.5929985046386700,265.9393005371094000,121.7217025756836000,19.4670104980468750,29.5022506713867200,151,137,103,84,65,15293,2152725403,2159634898,2167020571,2148237266,2149295259,2152619648,2156121481,2148955840,1081,7,13,35317
1340039330,5805,93.2699966430664000,19.4787006378173830,36.5928001403808600,266.9710083007812500,121.3924026489257800,19.4770698547363280,29.4557590484619140,160,141,104,84,66,15275,2154000850,2162004013,2170279917,2148369453,2149741458,2153406738,2157289216,2149094646,1003,7,13,8682
1340039385,5800,89.7500000000000000,19.4906997680664060,36.5926017761230500,268.1795959472656000,121.0458984375000000,19.4876594543457030,29.4021797180175780,161,140,105,84,66,15264,2155663698,2165126372,2174491337,2148545673,2150282514,2154472640,2158785398,2149262198,811,7,12,28969
1340039440,5804,86.5100021362304700,19.5170001983642580,36.5920982360839840,269.6843872070312500,120.1878967285156200,19.5138797760009770,29.3303699493408200,134,140,104,84,67,15272,2157633216,2168534162,2178642870,2148754294,2150956370,2155660708,2160341467,2149452662,534,7,13,49136
1340039517,5803,83.0100021362304700,19.5370998382568360,36.5928993225097660,271.2302856445312500,119.5171966552734400,19.5343799591064450,29.2597808837890620,116,138,104,83,67,15282,2159879570,2172295680,2183106203,2148988498,2151742857,2157047378,2162102774,2149668745,203,7,13,49755
1340039583,5804,81.5100021362304700,19.5482006072998050,36.5923004150390600,272.0978088378906000,119.1237030029296900,19.5464000701904300,29.2200202941894530,116,139,105,85,65,15276,2161081325,2174172077,2185162395,2149112018,2152155382,2157736283,2162925412,2149772096,3486,7,13,5215
1340039726,5805,79.6800003051757800,19.5732002258300780,36.5922012329101560,273.1907043457031000,118.3750000000000000,19.5692806243896500,29.1670093536376950,114,140,106,86,64,15246,2163224676,2177528694,2188760932,2149297874,2152965577,2159153828,2164657216,2149965540,3153,7,13,4042
1340039856,5801,77.0999984741211000,19.6201992034912100,36.5932998657226560,275.0232849121094000,116.8537979125976600,19.6157798767089840,29.0753707885742200,101,140,107,86,64,15256,2167028324,2183230866,2194995090,2149690075,2154471890,2161645531,2167566564,2150336146,2438,8,13,55887
1340039922,5801,74.6999969482421900,19.6562004089355470,36.5928001403808600,275.9254150390625000,115.6921997070312500,19.6512908935546880,29.0252399444580080,96,145,110,89,63,15232,2170157037,2187556105,2199275282,2150035291,2155771337,2163732260,2169879424,2150613156,2550,7,13,35147
1340039977,5804,72.6800003051757800,19.6889991760253900,36.5947990417480500,276.7684936523437500,114.3805999755859400,19.6913890838623050,28.9758090972900400,94,143,108,87,63,15234,2173367250,2191992841,2203955008,2150441106,2157159094,2165930404,2172310582,2150923017,2377,7,13,1124
1340040032,5804,70.7200012207031200,19.7259006500244140,36.5960006713867200,277.7659912109375000,113.3447036743164000,19.7230606079101560,28.9237709045410160,95,144,107,87,63,15222,2176870528,2196872329,2209052653,2150839707,2158772050,2168457938,2175178496,2151266624,2012,7,13,42555
1340040087,5801,68.8700027465820300,19.7901000976562500,36.5973014831543000,278.6430969238281000,111.3935012817382800,19.7827396392822270,28.8653297424316400,88,144,110,89,63,15219,2181006217,2202588269,2215192640,2151333659,2160604516,2171348013,2178302555,2151649371,1968,7,13,38517
1340040164,5803,66.1500015258789000,19.8745002746582030,36.5969009399414060,279.7431945800781000,108.4546966552734400,19.8726291656494140,28.7858390808105470,86,147,109,88,61,15205,2186999734,2209890084,2221807012,2152068352,2163371062,2175140169,2181782619,2152118134,1752,8,13,12339
1340040219,5802,63.8699989318847660,19.9715003967285160,36.5978012084960940,280.9350891113281000,105.4424972534179700,19.9647998809814450,28.7021999359130860,81,149,109,88,59,15201,2194816384,2219990372,2232222957,2153165814,2167271917,2180789284,2187536740,2152873764,1629,7,13,43343
1340040274,5800,61.7900009155273440,20.1345996856689450,36.5983009338378900,281.2438964843750000,99.8554306030273400,20.1358203887939450,28.6204109191894530,76,148,109,88,59,15177,2200620178,2226238217,2237114038,2153743021,2170696374,2185465398,2191667227,2153368758,1177,7,13,38917
1340040329,5804,60.0900001525878900,20.2942008972167970,36.5993995666503900,281.9796142578125000,96.3410568237304700,20.2434597015380860,28.5486793518066400,72,147,110,89,62,15175,2174683017,2185343652,2187074121,2150214262,2160256740,2167451081,2169298496,2150646555,903,7,13,32826
1340040395,5801,58.3199996948242200,20.3551998138427730,36.5998992919921900,282.2618103027344000,92.4926300048828100,20.3613700866699220,28.4899101257324220,74,146,111,89,58,15174,2215872064,2243858752,2253557101,2155710144,2179187611,2196496493,2201653714,2154660196,1428,7,13,12548
1340040473,5802,55.4799995422363300,20.6641006469726560,36.5988006591796900,281.3741149902344000,82.0713195800781200,20.6809291839599600,28.3938808441162100,70,149,110,87,62,15174,2228396269,2257283940,2265983259,2157728795,2187219501,2206468196,2210405412,2155913389,1611,6,13,32181
1340040615,5806,50.3300018310546900,21.0697002410888670,36.5741004943847660,279.0548095703125000,70.1708602905273400,21.0463409423828120,28.3346900939941400,65,148,110,89,57,15176,2248649691,2278607131,2286418221,2161882212,2202718317,2224631890,2225490468,2158237129,1055,7,13,3941
1340040649,5804,48.9399986267089840,21.0788993835449220,36.5744018554687500,278.8392944335937500,69.4819335937500000,21.0675106048584000,28.3344497680664060,65,143,111,88,63,15174,2253279972,2283356690,2291186980,2163258477,2206221376,2228435072,2228822582,2158834560,916,8,13,60208
1340040682,5805,47.6800003051757800,21.0960006713867200,36.5731010437011700,278.4364929199219000,68.4997329711914000,21.0977001190185550,28.3376808166503900,65,146,111,87,60,15176,2257364598,2287017636,2294234038,2164169353,2210138441,2232874404,2232164278,2159372955,880,8,13,49770
1340040739,5804,45.5200004577636700,21.1558990478515620,36.5668983459472660,277.6094970703125000,66.4445571899414000,21.1608791351318360,28.3439407348632800,63,143,111,87,59,15179,2268374528,2299342217,2307523885,2167237220,2217705856,2241475062,2239603044,2160723145,959,7,13,32739
1340040797,5801,43.6300010681152340,21.2306995391845700,36.5572013854980500,277.1718139648437500,64.2231826782226600,21.2291908264160160,28.3333892822265620,62,142,109,89,63,15188,2274953874,2305107355,2312894043,2169417197,2224759469,2249240768,2246100672,2162026560,1155,7,13,20876
1340040878,5803,41.8100013732910160,21.2861003875732420,36.5494995117187500,276.2753906250000000,62.1620216369628900,21.2925796508789060,28.3424091339111330,62,139,110,87,59,15195,2285580717,2315763977,2323917056,2172733385,2232273792,2257326144,2252933970,2163335241,1586,7,12,29845
1340041137,5801,39.8400001525878900,21.3826999664306640,36.5428009033203100,275.4639892578125000,58.7638092041015600,21.3971405029296880,28.3317394256591800,59,146,108,89,62,15185,2301506715,2332736274,2340631094,2177116699,2249072393,2275186011,2265320795,2165119972,619,7,13,37390
1340041206,5803,37.5600013732910160,21.4088001251220700,36.5404014587402340,275.3198852539062500,57.8484916687011700,21.4253196716308600,28.3258590698242200,58,142,109,88,60,15193,2313418404,2342331282,2349112228,2181964653,2264180278,2290377261,2276529481,2167306249,537,8,13,2343
1340041251,5805,35.8300018310546900,21.4673995971679700,36.5374984741210940,275.1254882812500000,55.9076004028320300,21.4850692749023440,28.3095493316650400,56,145,111,87,59,15188,2323400795,2351798674,2358690834,2186179629,2275793664,2302573275,2286104539,2169228288,476,8,13,19518
1340041308,5803,33.7900009155273440,21.6305007934570300,36.5321006774902340,274.0614013671875000,50.1331100463867200,21.6629390716552730,28.2795791625976560,56,147,109,88,63,15180,2336014939,2363376603,2370392603,2191993609,2289748160,2315987876,2295631286,2171476480,441,6,12,26068
1340041377,5805,31.9400005340576170,21.9323997497558600,36.5191993713378900,272.5733947753906000,41.3428001403808600,21.9339904785156250,28.2290992736816400,57,146,111,89,61,15166,2342485174,2368140955,2374437494,2195230656,2302444214,2329519387,2306759497,2173521133,255,8,13,5046
1340041444,5803,30.8400001525878900,22.3497009277343750,36.5004997253418000,269.5414123535156000,27.2755508422851560,22.3685398101806640,28.1750297546386720,57,146,109,88,57,15162,2355959643,2382932096,2391067081,2201386624,2315162724,2341754724,2316200365,2176231798,809,6,12,39481
1340041763,5805,28.8899993896484380,22.7416000366210940,36.5097007751464840,262.9754028320312500,14.2274599075317380,22.7724990844726560,28.2765197753906250,55,139,109,88,58,15212,2369554432,2396231305,2405302006,2210369956,2332018678,2357411611,2326795977,2178533897,402,6,13,54631
1340041844,5805,26.8500003814697270,22.8437004089355470,36.5147018432617200,261.5646057128906000,11.1379699707031250,22.8682804107666000,28.2956600189209000,55,138,108,88,56,15213,2376942345,2403034934,2413032841,2216725942,2352506944,2376583030,2340634587,2182049901,587,7,12,45410
